FLOCK 4V-12 (46283 NORAD) Tracking and Keplerian Element Data

This shows tracking and keplerian element data for the satellite.

Feedback or suggestion? Click here.




ElementValue
Catalog46283
NameFLOCK 4V-12
Epoch Orbit318
Epoch Day268.35169942
Epoch Year2020
RAAN341.0853
Inclination97.5177
Eccentricity0.0002066
Argument of Perigee270.9492
Mean Anonmoly89.15
Mean Motion15.09874734
Decay Rate7.11E-06
L11 46283U 20061M 20268.35169942 .00000711 00000-0 47796-4 0 9995
L22 46283 97.5177 341.0853 0002066 270.9492 89.1500 15.09874734 3185

Live tracking and technical data element details for FLOCK 4V-12 (NORAD 46283). FLOCK 4V-12 can be tracked NOW for your location showing map with azimuth and elevation plus other details from your city location.

Track the satellite on the map from your city or location and see movement details for azimuth, elevation, latitude, longitude, range, height, and movement on the map or in text.







IsCatalogInMostPopularTable: catalog: 46283, numindb: -1

Insert: records affected: 1


GetName: 46283 FLOCK 4V-12

Hit Count: inserted at: Sat, 26 Sep 2020 13:41:06 GMT